Current Version              Previous Version:    01  02  03  04  05  06  07  08  09  10  11  12  13  14  15  16  17  18  19  20  21  22  23  24  25  26  27  28  29  30  
   31  32  33  34  35  36  37  38  39  40  41  42  43  44  45  46  47  48  49  50  51  52  53  54  55  56  57  58  59  60  

[Printable]
177
ASUS44 KFWD 201410
RWRTX
NORTH TEXAS HOURLY WEATHER ROUNDUP
NATIONAL WEATHER SERVICE FORT WORTH TX
800 AM CST SAT DEC 20 2014

NOTE: "FAIR" INDICATES FEW OR NO CLOUDS BELOW 12,000 FEET WITH NO
SIGNIFICANT WEATHER AND/OR OBSTRUCTIONS TO VISIBILITY.

TXZ118-119-201500-
DALLAS/FORT WORTH METROPLEX

CITY           SKY/WX    TMP DP  RH WIND       PRES   REMARKS
DFW AIRPORT    DRIZZLE   45  42  89 NE7       30.24R FOG
DALLAS LOVE    CLOUDY    46  42  86 N3        30.24R FOG
FTW MEACHAM    CLOUDY    46  41  82 NE6       30.23S HAZE
DAL-EXECUTIVE  CLOUDY    47  43  86 N3        30.23S FOG
FTW-ALLIANCE   CLOUDY    44  41  89 NE3       30.24R
FTW-SPINKS     CLOUDY    45  43  93 CALM      30.25R FOG
ARLINGTON      CLOUDY    47  42  83 N3        30.24R
GRAND PRAIRIE  CLOUDY    46  46 100 N7        30.25  FOG
ADDISON        CLOUDY    45  41  87 NE5       30.25
MESQUITE       CLOUDY    45  45 100 N3        30.25
LANCASTER      CLOUDY    46  42  89 N5        30.25S FOG
$$

TXZ091>094-102>105-117-120-121-131>134-201500-
NORTH CENTRAL TEXAS

CITY           SKY/WX    TMP DP  RH WIND       PRES   REMARKS
SHRMAN/DENISON CLOUDY    43  42  94 CALM      30.25F
GAINESVILLE    CLOUDY    42  36  81 N3        30.26S
BOWIE          CLOUDY    42  38  89 NW5       30.23R WCI  39
BRIDGEPORT     CLOUDY    44  41  89 CALM      30.26R
DECATUR        CLOUDY    42  39  91 CALM      30.24R
DENTON         CLOUDY    44  40  85 NE6       30.25R
MCKINNEY       CLOUDY    44  41  89 N5        30.24S
GREENVILLE     FOG       45  43  93 N5        30.25R VSB 1/2
ROCKWALL       CLOUDY    44  44 100 N5        30.23S FOG
TERRELL        FOG       47  45  93 N6        30.25R VSB 1/2
WAXAHACHIE     CLOUDY    45  45 100 N3        30.24S FOG
CLEBURNE       CLOUDY    45  45 100 CALM      30.24S
GRANBURY       CLOUDY    46  42  86 CALM      30.25S
$$

TXZ083>090-098>101-113>116-127>130-139>142-154-155-201500-
WESTERN NORTH TEXAS

CITY           SKY/WX    TMP DP  RH WIND       PRES   REMARKS
WICHITA FALLS  CLOUDY    42  40  92 E3        30.21S
WF-KICKAPOO    CLOUDY    43  38  83 SE3       30.24R
VERNON         CLOUDY    43  39  84 E3        30.21R
ABILENE        CLOUDY    45  37  73 CALM      30.20S
BRECKENRIDGE   CLOUDY    46  42  86 CALM      30.22R
GRAHAM         CLOUDY    43  40  89 CALM      30.21S
MINERAL WELLS  LGT RAIN  44  41  89 E3        30.22R FOG
STEPHENVILLE   CLOUDY    44  41  90 E3        30.24S
COMANCHE       CLOUDY    44  44 100 E5        30.21R FOG
BROWNWOOD      CLOUDY    46  43  87 SE3       30.21R
COLEMAN        CLOUDY    46  44  95 CALM      30.20R
$$

TXZ143>147-156>162-174-175-201500-
CENTRAL TEXAS

CITY           SKY/WX    TMP DP  RH WIND       PRES   REMARKS
WACO           CLOUDY    47  45  93 N7        30.22F
WACO-TSTC      CLOUDY    48  46  93 N7        30.23S FOG
WACO-MCGREGOR  CLOUDY    46  41  81 N7        30.23S
HILLSBORO      CLOUDY    46  43  89 CALM      30.23R FOG
CORSICANA      CLOUDY    47  44  90 NE6       30.24S
MEXIA          CLOUDY    46  44  91 N5        30.22R
HEARNE         CLOUDY    48  46  93 N7        30.22S
CAMERON        CLOUDY    49  47  93 N7        30.22S FOG
TEMPLE         CLOUDY    46  41  81 NE6       30.21R
KILLEEN        CLOUDY    46  44  91 N6        30.22R
KILLEEN-SKYLRK CLOUDY    46  39  76 N6        30.18S
FORT HOOD      CLOUDY    47  44  91 N6        30.21R
GATESVILLE     CLOUDY    46  41  81 E6        30.24R
HAMILTON       CLOUDY    46  46 100 NE3       30.22R
$$

TXZ095>097-106>112-122>126-135>138-148>153-164>167-201500-
EAST TEXAS

CITY           SKY/WX    TMP DP  RH WIND       PRES   REMARKS
PARIS          CLOUDY    45  41  87 CALM      30.26R
SULPHUR SPRNGS CLOUDY    46  44  95 CALM      30.27R FOG
MOUNT PLEASANT CLOUDY    45  44  98 CALM      30.27R
MINEOLA        CLOUDY    46  46 100 CALM      30.25S FOG
TYLER          CLOUDY    46  44  93 NE5       30.23R FOG
LONGVIEW       CLOUDY    45  42  89 NE5       30.24R
MARSHALL       CLOUDY    48  46  91 N5        30.27R
ATHENS         CLOUDY    45  43  93 NE5       30.22R FOG
PALESTINE      CLOUDY    47  46  95 N5        30.23S
JACKSONVILLE   CLOUDY    46  45  99 NE8       30.23R FOG
HENDERSON      CLOUDY    46  45  97 NE6       30.24R
NACOGDOCHES    CLOUDY    46  43  87 NE5       30.23R
LUFKIN         CLOUDY    50  45  83 N6        30.22R HAZE
$$

SUPPLEMENTAL OBSERVATIONS (CENTRAL)

CITY           SKY/WX    TMP DP  RH WIND       PRES   REMARKS
CADDO GRASSLND   N/A     43  41  93 NW2         N/A
PAT MAYSE LAKE   N/A     43  41  93 N1          N/A
GREENVILLE       N/A     45  43  93 N6          N/A
CEDAR HILL       N/A     45  41  87 NE3         N/A
PALESTINE        N/A     46  43  87 NE7         N/A
MCGREGOR         N/A     46  41  81 VRB1G9      N/A
TEMPLE           N/A     48  45  87 N2          N/A
$$

SUPPLEMENTAL OBSERVATIONS (WEST)

CITY           SKY/WX    TMP DP  RH WIND       PRES   REMARKS
MILLERS CREEK    N/A     43  39  87 SE6         N/A  WCI  39
POSSUM KINGDOM   N/A     43  39  87 S1          N/A
LBJ GRASSLAND    N/A     43  39  87 CALM        N/A
GRANBURY         N/A     45  41  87 SW1         N/A
HAMBY            N/A     45  37  76 N3          N/A
IVIE RESERVOIR   N/A     46  41  81 E6          N/A
COLORADO BEND    N/A     45  39  81 E1          N/A
$$

SUPPLEMENTAL OBSERVATIONS (EAST)

CITY           SKY/WX    TMP DP  RH WIND       PRES   REMARKS
CLARKSVILLE      N/A     43  41  93 E2          N/A
TEXARKANA        N/A     43  39  87 E2          N/A
LINDEN           N/A     43  39  87 E2          N/A
GILMER           N/A     45  41  87 NE2         N/A
HENDERSON        N/A     45  39  81 NE6         N/A
LUFKIN           N/A     48  43  81 MISG        N/A
N SABINE NF      N/A     46  43  87 MISG        N/A
S SABINE NF      N/A     46  41  81 NE5         N/A
$$

SUPPLEMENTAL OBSERVATIONS ARE A COLLECTION OF AUTOMATED INSTRUMENTS
THAT ARE MAINTAINED BY A VARIETY OF FEDERAL AND STATE AGENCIES.
CERTAIN ELEMENTS...SUCH AS HUMIDITY VALUES AND SUSTAINED WIND
SPEEDS...MAY BE APPROXIMATED.